Teterboro, NJ

5:17 AM EST on December 16, 2019 (GMT -0500)
Teterboro

Weather History for KTEB - November, 2019

Change the Weather History Date:

Thursday, November 14, 2019

  Actual Average Record
Temperature  
Mean Temperature 33 °F -  
Max Temperature 43 °F 51 °F 69 °F (2011)
Min Temperature 23 °F 35 °F 28 °F (2004)
Degree Days  
Heating Degree Days 32    
Moisture  
Dew Point 22 °F    
Average Humidity 60    
Maximum Humidity 81    
Minimum Humidity 47    
Precipitation  
Precipitation 0.00 in - - ()
Sea Level Pressure  
Sea Level Pressure 30.38 in    
Wind  
Wind Speed 4 mph ()    
Max Wind Speed 14 mph    
Max Gust Speed -    
Visibility 10.0 miles    
Events      
Averages and records for this station are not official NWS values.
T = Trace of Precipitation, MM = Missing Value Source: Averaged Metar Reports

Daily Weather History Graph

Daily Weather History Graph

Search for Another Location

Airport or City:

Astronomy

Nov. 14, 2019 Rise Set
Actual Time 6:41 AM EST 4:38 PM EST
Civil Twilight 6:12 AM EST 5:08 PM EST
Nautical Twilight 5:39 AM EST 5:41 PM EST
Astronomical Twilight 5:07 AM EST 6:13 PM EST
Moon 6:22 PM EST (11/14) 8:35 AM EST (11/14)
Length of Visible Light 10h 55m
Length of Day
9h 57m
Waning Gibbous, 95% of the Moon is Illuminated
Nov 14
Waning Gibbous
Nov 19
Last Quarter
Nov 26
New
Dec 4
First Quarter
Dec 12
Full

Hourly Weather History & Observations

Time (EST) Temp. Windchill Dew Point Humidity Pressure Visibility Wind Dir Wind Speed Gust Speed Precip Events Conditions
12:51 AM 26.1 °F - 14.0 °F 60% 30.45 in 10.0 mi Calm Calm - N/A   Clear
1:51 AM 26.1 °F 20.5 °F 12.9 °F 58% 30.45 in 10.0 mi North 4.6 mph - N/A   Clear
2:51 AM 26.1 °F 20.5 °F 14.0 °F 60% 30.43 in 10.0 mi North 4.6 mph - N/A   Clear
3:51 AM 25.0 °F 19.3 °F 15.1 °F 66% 30.43 in 10.0 mi North 4.6 mph - N/A   Clear
4:51 AM 25.0 °F 20.7 °F 16.0 °F 69% 30.43 in 10.0 mi North 3.5 mph - N/A   Clear
5:51 AM 25.0 °F - 17.1 °F 72% 30.43 in 10.0 mi Calm Calm - N/A   Clear
6:51 AM 23.0 °F 17.0 °F 18.0 °F 81% 30.44 in 10.0 mi NNW 4.6 mph - N/A   Clear
7:51 AM 27.0 °F 23.0 °F 18.0 °F 69% 30.46 in 10.0 mi NNE 3.5 mph - N/A   Clear
8:51 AM 30.0 °F 26.5 °F 19.0 °F 64% 30.46 in 10.0 mi NNE 3.5 mph - N/A   Clear
9:51 AM 34.0 °F - 19.9 °F 56% 30.45 in 10.0 mi Calm Calm - N/A   Mostly Cloudy
10:51 AM 35.1 °F - 19.0 °F 52% 30.43 in 10.0 mi Calm Calm - N/A   Mostly Cloudy
11:51 AM 37.9 °F 32.1 °F 19.9 °F 48% 30.40 in 10.0 mi SSW 8.1 mph - N/A   Clear
12:51 PM 41.0 °F 35.8 °F 23.0 °F 49% 30.36 in 10.0 mi SW 8.1 mph - N/A   Clear
1:51 PM 43.0 °F 36.0 °F 24.1 °F 47% 30.34 in 10.0 mi SW 13.8 mph - N/A   Clear
2:51 PM 43.0 °F 37.7 °F 25.0 °F 49% 30.33 in 10.0 mi WSW 9.2 mph - N/A   Clear
3:51 PM 43.0 °F 40.3 °F 26.1 °F 51% 30.32 in 10.0 mi West 4.6 mph - N/A   Clear
4:51 PM 43.0 °F 39.5 °F 25.0 °F 49% 30.31 in 10.0 mi SSE 5.8 mph - N/A   Clear
5:51 PM 42.1 °F 39.2 °F 28.0 °F 58% 30.31 in 10.0 mi SSW 4.6 mph - N/A   Clear
6:51 PM 42.1 °F 37.7 °F 30.0 °F 62% 30.30 in 10.0 mi South 6.9 mph - N/A   Clear
7:51 PM 42.1 °F 37.7 °F 30.9 °F 65% 30.29 in 10.0 mi SW 6.9 mph - N/A   Clear
8:51 PM 42.1 °F 37.7 °F 30.0 °F 62% 30.30 in 10.0 mi WSW 6.9 mph - N/A   Clear
9:51 PM 41.0 °F 37.1 °F 28.0 °F 60% 30.30 in 10.0 mi WSW 5.8 mph - N/A   Mostly Cloudy
10:51 PM 39.0 °F 35.7 °F 28.0 °F 65% 30.30 in 10.0 mi WSW 4.6 mph - N/A   Scattered Clouds
11:51 PM 37.9 °F - 28.0 °F 68% 30.29 in 10.0 mi Calm Calm - N/A   Clear